Погода в Старом Каразерике

Россия / Республика Татарстан     54°45′43″N   53°35′56″E
темп.,
°C
ветер,
м/с
пор.,
м/с
влажн.,
%
обл.,
%
осадки,
мм/ч
давл.,
гПа
погр.,
м
3 марта, ср
ср300:00−5зюз479474 0.1 1000117
03:00−3зюз489466 0.1 1000219
06:00−6юз339573 0.0 100043
09:00−5юз369557 0.0 1000226
12:00−2зюз359398 0.0 1000409
15:00−2з479199 0.4 1001573
18:00−4з51090100 0.1 1001366
21:00−6сз61294100 0.4 1003525
4 марта, чт
чт400:00−10зсз4119293 0.2 1003227
03:00−11з489464 0.2 1004154
06:00−13юз489428 0.0 1004137
09:00−8юз6129164 0.0 1003479
12:00−6юз81389100 0.1 1001585
15:00−5юз81488100 0.1 999791
18:00−4ююз81793100 0.3 996838
21:00−1з81578100 1.1 9961020
5 марта, пт
пт500:00−4зюз5138698 0.0 998429
03:00−5зюз4108999 0.0 1000310
06:00−5юз2492100 0.0 100089
09:00−3зюз1296100 1.6 1001184
12:00−2с1194100 1.2 1000232
15:00−3с4696100 2.3 1001438
18:00−6ссз5994100 1.2 1003456
21:00−15сз499183 1.3 1008170
6 марта, сб
сб600:00−18зсз34940 0.0 101241
03:00−19зюз22961 0.0 101420
06:00−18ююз229475 0.0 101520
09:00−14ю239287 0.0 1015102
12:00−10ю2387100 0.0 1013232
15:00−9в1191100 0.0 101184
18:00−15в1194100 0.0 101021
21:00−17ю019350 0.0 100920
7 марта, вс
вс700:00−17юз129333 0.0 100920
03:00−17юз229067 0.0 100921
06:00−16зюз2396100 0.2 100940
09:00−14зсз479399 0.3 1011357
12:00−12з4688100 0.1 1012521
15:00−12юз468791 0.1 1012443
18:00−17ююз48930 0.0 1012126
21:00−14ю7148850 0.0 1010434